Location: Esp�n
(42.4593°N, 0.2047°W)
Time: 11:27:20
(UTC+00:00)

Cosmos 2322 Rocket - Pass Details

Date: 07 June 2020
Orbit: 833 x 850 km, 71.0° (Epoch: 10 July)

Event Time Altitude Azimuth Distance (km) Brightness Sun altitude
Exits shadow 03:11:15 12° 247° (WSW) 2,279 3.9 -11.2°
Maximum altitude 03:15:37 30° 305° (NW) 1,449 3.3 -10.7°
Drops below altitude 10° 03:20:33 10° 6° (N) 2,452 5.4 -10.0°
Sets 03:23:18 0° 17° (NNE) 3,389 6.5 -9.6°
